Home > Weather > U.S.A. > New City > Past weeks

Flag for U.S.A. Weather past 2 weeks in New City, New York, U.S.A.

43 °F


Feels Like: 43 °F
Forecast: 46 / 55 °F
Wind: No wind

Location: Westchester County Airport

Current Time: Dec 2, 2015 at 2:13:28 AM

Latest Report: Dec 2, 2015 at 12:56 AM

Visibility: 6 mi

Pressure: 29.98 "Hg

Humidity: 93%

Dew point: 41 °F

Location of New CityLocation

Historic Weather in New City — Graph


New City temperature yesterday

Maximum temperature yesterday: 47 °F (at 11:56 AM)
Minimum temperature yesterday: 40 °F (at 4:56 AM)
Average temperature yesterday: 44 °F

Past Weeks' High & Low Weather Summary

High63 °F (Nov 27, 1:56 PM)100% (Nov 27, 1:56 AM)30.83 "Hg (Nov 27, 1:56 AM)
Low24 °F (Nov 24, 5:56 AM)28% (Nov 23, 2:56 PM)29.86 "Hg (Nov 22, 4:56 AM)
Average44 °F67%30.31 "Hg
* Reported Nov 17 12:56 AM — Dec 2 12:56 AM, New City, Weather by CustomWeather, © 2015

Note: Actual official high and low records may vary slightly from our data, if they occured in-between our weather recording intervals... More about our weather records


New City weather history for previous 24 hours

Time TempWeatherWind HumidityBarometerVisibility
12:56 AM
Wed, Dec 2
43 °FFog.No wind93%29.98 "Hg6 mi
11:56 PM
Tue, Dec 1
43 °FFog.3 mph93%30.01 "Hg5 mi
9:56 PM45 °FLight rain. Fog.3 mph93%30.03 "Hg3 mi
8:56 PM45 °FLight rain. Fog.5 mph93%30.05 "Hg1 mi
7:56 PM46 °FLight rain. Fog.5 mph93%30.06 "Hg1 mi
6:56 PM46 °FLight rain. Fog.9 mph93%30.06 "Hg2 mi
5:56 PM45 °FLight rain. Fog.12 mph93%30.06 "Hg3 mi
4:56 PM45 °FLight rain. Fog.12 mph93%30.08 "Hg2 mi
3:56 PM46 °FLight rain. Fog.9 mph93%30.12 "Hg4 mi
2:56 PM46 °FLight rain. Fog.8 mph89%30.14 "Hg2 mi
1:56 PM47 °FMore clouds than sun.13 mph83%30.16 "Hg10 mi
12:56 PM47 °FMore clouds than sun.13 mph83%30.17 "Hg10 mi
11:56 AM47 °FLight rain. Fog.9 mph86%30.20 "Hg3 mi
10:56 AM46 °FMostly cloudy.8 mph89%30.22 "Hg10 mi
9:56 AM44 °FOvercast.9 mph93%30.24 "Hg9 mi
8:56 AM44 °FDrizzle. Overcast.8 mph85%30.26 "Hg8 mi
7:56 AM42 °FLight rain. Overcast.9 mph89%30.24 "Hg10 mi
6:56 AM41 °FDrizzle. Mostly cloudy.6 mph89%30.27 "Hg8 mi
5:56 AM41 °FLight rain. Mostly cloudy.8 mph86%30.27 "Hg8 mi
4:56 AM40 °FLight rain. Fog.5 mph89%30.28 "Hg5 mi
3:56 AM41 °FLight rain. Fog.5 mph89%30.29 "Hg4 mi
2:56 AM41 °FLight rain. Overcast.5 mph80%30.29 "Hg10 mi
Weather by CustomWeather, © 2015

See weather overviewHow to use our weather pages